Tracking 19245 objects as of 15-Aug-2018
HD Live streaming from Space Station
objects crossing your sky now

USA 105

Track USA 105 now!
USA 105 is classified as:


NORAD ID: 23223
Int'l Code: 1994-054A
Perigee: 35,663.1 km
Apogee: 35,925.4 km
Inclination: 11.2 °
Period: 1,436.1 minutes
Semi major axis: 42165 km
RCS: Unknown
Launch date: August 27, 1994
Source: United States (US)
Launch site: AIR FORCE EASTERN TEST RANGE (AFETR)

In the $1 billion range; ELINT; signals intelligence.
aabbcc
Your satellite tracking list
Your tracking list is empty




NASA's NSSDC Master Catalog

Two Line Element Set (TLE):
1 23223U 94054A   18046.56418910 0.00000000  00000-0  00000-0 0    00
2 23223  11.2168  32.2277 0031108 144.9419 215.2786  1.00270000    02
Source of the keplerian elements: McCants